Regional Weather Roundup
Issued by NWS Glasgow, MT

Home | Current Version | Previous Version | Text Only | Print | Product List | Glossary On
Versions: 1 2 3 4 5 6 7 8 9 10 11 12 13 14 15 16 17 18 19 20 21 22 23 24 25 26 27 28 29 30 31 32 33 34 35 36 37 38 39 40 41 42 43 44 45 46
000
ASUS45 KGGW 300715
RWRGGW
HOURLY WEATHER ROUNDUP FOR NORTHEAST MONTANA
NATIONAL WEATHER SERVICE GLASGOW MONTANA
1200 AM MST FRI JAN 30 2015

NOTE: "FAIR" INDICATES FEW OR NO CLOUDS BELOW 12,000 FEET WITH NO
SIGNIFICANT WEATHER AND/OR OBSTRUCTIONS TO VISISBILITY.

NORTHEAST MONTANA


CITY           SKY/WX    TMP DP  RH WIND       PRES   REMARKS
GLASGOW        PTCLDY    25  21  85 E7        30.17F
PLENTYWOOD       N/A     25  22  88 SE6         N/A
WOLF POINT     CLEAR     24  21  88 N3        30.19F
JORDAN           N/A     29  26  89 W5        30.18F
WINNETT          N/A     27  26  96 W2          N/A
SIDNEY         CLEAR     25  19  80 CALM      30.24F
GLENDIVE       CLEAR     28  19  69 S7        30.22F
MALTA            N/A     23  23 100 N2          N/A
SCOBEY           N/A     23  17  78 CALM      30.14S

FORT PECK REPORTS


CITY           SKY/WX    TMP DP  RH WIND       PRES   REMARKS
FORT PECK        N/A     30  26  85 SE7         N/A
THE PINES        N/A     33  26  75 S3          N/A

SOUTHEAST MONTANA


CITY           SKY/WX    TMP DP  RH WIND       PRES   REMARKS
BILLINGS       PTCLDY    36  27  69 SW13      30.22F
MILES CITY     CLEAR     32  23  69 S12       30.21F
BAKER          CLEAR     32  18  56 S14       30.23F
LIVINGSTON     PTCLDY    38  20  48 W20       30.26S

CENTRAL MONTANA


CITY           SKY/WX    TMP DP  RH WIND       PRES   REMARKS
HAVRE          CLEAR     30  26  85 SW12      30.19S
LEWISTOWN      CLEAR     27  18  69 SE5       30.21R
GREAT FALLS    CLEAR     32  19  58 SW14      30.21R
CUT BANK       CLEAR     29  15  56 W12       30.18F
HELENA         CLEAR     27  22  81 SE3       30.29R
BUTTE          PTCLDY    22  19  89 CALM      30.30S
BOZEMAN        PTCLDY    24  20  84 E7        30.30S

WESTERN MONTANA


CITY           SKY/WX    TMP DP  RH WIND       PRES   REMARKS
MISSOULA       CLEAR     21  19  92 W3        30.37S
KALISPELL      NOT AVBL

NORTH DAKOTA


CITY           SKY/WX    TMP DP  RH WIND       PRES   REMARKS
WILLISTON      PTCLDY    26  20  77 S7        30.21F
DICKINSON      CLEAR     24  17  74 S12       30.24F
MINOT          PTCLDY    15  11  83 SE6       30.31F
BISMARCK       CLEAR     17  15  92 SE8       30.39F

SOUTHERN SASKATCHEWAN


CITY           SKY/WX    TMP DP  RH WIND       PRES   REMARKS
REGINA         PTCLDY    16  14  93 SE14      30.18F
ESTEVAN        PTCLDY    14  12  92 E9        30.23F
SWIFT CURRENT  CLEAR     27  23  86 W13       30.13R



USA.gov is the U.S. government's official web portal to all federal, state and local government web resources and services.